Wind_Speed
5 6 7 7 8 8 7 7 8 8 9 8 8 9 10 11 13 13 13 12 12 12 12 12 13 13 13 13 14 14 15 14 14 14 14 14 15 15 15 16 15 15 15 14 14 14 14 15 15 15 16 15 15 15 14 14 13 12 12 11 11 10 10 9 9 8 8 7 7 7 7 7 7 9 10 11 12 13 14 15 16 16 17 18 19
6 7 8 9 9 9 8 8 9 9 9 9 9 9 8 9 11 11 11 12 12 11 11 11 12 13 13 13 13 14 14 14 14 14 14 14 15 15 16 16 15 15 15 15 15 15 14 14 15 15 15 15 14 14 14 13 12 12 11 10 10 9 8 8 7 7 7 7 6 6 5 5 6 8 10 11 12 14 15 16 16 17 18 19 20
8 8 8 9 9 9 9 9 9 10 10 9 10 9 8 9 10 10 10 11 11 10 9 10 11 12 12 13 13 13 14 14 14 14 13 14 14 15 15 16 15 15 15 15 15 15 15 15 15 15 14 14 14 13 12 12 11 10 10 9 8 8 7 7 6 6 6 6 5 5 4 5 6 8 9 10 12 14 15 16 16 17 18 20 22
7 8 8 9 11 10 9 10 10 11 11 10 10 10 10 10 10 11 10 10 10 9 8 9 10 11 11 12 12 12 13 13 13 13 14 14 14 14 14 15 15 15 15 15 15 15 15 15 15 14 14 13 12 12 11 11 10 9 9 8 8 7 7 6 6 6 5 5 4 4 4 5 6 7 9 10 12 14 16 17 17 18 20 22 23
8 8 9 10 11 11 10 11 11 12 12 12 10 10 11 11 11 11 10 10 11 9 8 8 9 10 10 11 11 11 12 12 13 13 14 14 14 14 14 15 15 15 15 15 15 15 15 15 15 14 13 12 12 11 10 10 9 9 8 8 7 7 7 6 6 5 5 5 5 5 5 6 6 8 9 11 13 14 16 17 18 19 21 23 25
9 9 10 10 12 12 11 11 11 12 12 12 12 11 11 12 11 11 11 11 11 10 9 8 9 10 10 10 11 11 11 12 12 13 13 14 14 14 15 15 15 15 15 15 15 14 14 14 14 13 12 11 11 10 9 9 9 8 8 8 8 8 8 7 7 7 6 6 6 6 6 6 7 8 10 11 13 15 16 17 18 20 22 24 26
11 11 11 12 12 12 11 11 11 12 12 10 11 12 11 12 11 11 11 12 12 11 10 10 10 10 10 11 11 11 11 12 12 12 13 14 14 14 14 14 14 14 15 14 14 14 14 14 13 12 11 10 10 9 9 9 9 10 10 11 11 11 11 10 9 8 8 8 7 7 7 7 8 10 10 12 13 15 17 18 19 21 23 25 26
13 13 13 13 13 12 12 12 11 12 12 10 11 11 11 13 12 12 12 13 13 12 11 11 11 11 11 11 11 11 11 12 12 13 13 13 13 13 13 13 13 14 14 14 14 14 13 12 12 11 10 10 9 9 9 10 11 12 13 14 14 14 14 13 12 11 9 8 7 7 7 8 9 10 11 12 14 16 17 18 20 22 24 25 25
14 14 14 14 14 14 13 12 11 12 12 12 12 11 12 13 12 12 12 12 12 11 11 11 11 11 11 11 12 12 12 12 12 13 13 13 13 12 13 13 13 13 13 13 13 12 12 11 11 10 10 10 10 10 10 11 12 13 15 15 16 16 16 15 14 13 11 9 8 7 7 8 9 10 12 14 15 16 18 19 21 23 24 25 26
13 13 14 14 13 13 13 12 11 11 11 11 12 12 13 13 13 12 11 11 12 11 12 12 11 11 11 11 11 12 12 12 12 12 12 12 11 11 11 12 13 13 13 12 12 11 11 11 10 10 10 10 10 10 11 12 13 14 15 16 17 17 17 16 16 15 13 11 9 8 8 9 10 11 13 14 16 17 19 20 22 23 24 25 27
12 13 13 14 13 12 13 12 11 11 11 11 11 12 13 13 13 12 12 11 11 12 12 12 11 11 11 11 12 12 13 13 12 11 10 10 10 10 10 11 12 12 12 11 11 11 10 10 10 10 10 10 10 11 11 12 13 14 15 16 17 18 17 16 15 14 13 11 10 9 9 10 11 12 13 15 16 18 20 21 22 22 24 26 28
12 12 12 14 14 13 13 13 13 11 11 11 11 11 12 13 13 13 13 12 12 13 13 13 12 12 12 12 13 13 13 12 11 10 9 9 9 9 10 10 11 11 11 10 10 10 10 9 9 9 10 10 10 11 11 12 12 13 15 16 16 16 15 14 14 14 13 12 12 11 11 11 12 13 14 16 17 18 19 20 21 22 25 27 28
11 12 12 13 14 14 14 15 14 12 12 12 11 11 12 12 12 13 13 12 12 13 14 13 12 12 12 13 13 13 13 12 10 9 9 8 9 9 10 10 10 10 10 9 9 9 9 8 8 9 9 10 10 11 11 12 12 13 14 15 15 15 13 12 12 13 13 13 13 12 12 12 13 14 15 16 17 18 18 19 21 23 26 27 28
11 11 11 12 13 14 14 15 15 14 13 13 12 12 12 12 11 12 12 13 13 13 13 13 12 12 13 13 14 13 12 11 10 9 8 8 9 10 10 10 10 10 9 9 8 8 8 8 8 8 9 10 10 10 11 12 12 12 13 14 14 13 11 11 11 12 13 13 13 13 13 13 14 15 15 16 16 17 18 20 23 25 26 27 28
10 10 10 11 12 13 14 14 14 14 14 13 13 12 12 11 11 11 12 12 13 13 13 13 13 13 13 13 13 12 11 10 8 7 7 7 8 9 9 9 9 9 8 8 8 7 7 7 8 8 9 9 10 10 11 11 11 11 12 13 12 11 10 11 11 12 12 13 13 12 13 13 14 14 14 15 16 18 19 22 24 25 27 27 28
9 9 9 10 11 12 13 14 13 14 14 13 13 13 12 11 11 10 10 11 12 12 12 12 12 13 13 12 11 10 9 8 6 6 6 6 6 8 8 8 8 8 7 7 7 7 7 7 8 8 9 9 10 10 10 10 10 11 11 11 10 10 11 11 11 12 12 12 12 12 12 13 13 14 14 16 17 19 21 23 24 26 26 27 28
8 8 9 9 10 11 12 13 13 13 13 12 13 13 12 11 11 10 9 10 11 10 10 11 11 10 10 10 9 8 6 5 4 4 4 5 6 6 6 7 7 7 7 6 6 6 7 7 8 8 8 8 9 9 9 10 10 10 10 10 10 11 11 11 11 12 12 12 12 12 12 13 13 14 16 17 19 20 22 24 25 26 26 27 28
8 8 8 9 9 10 11 12 12 12 12 12 12 13 12 11 11 10 10 10 10 9 9 9 9 9 8 8 7 6 4 3 3 3 4 6 6 6 6 7 7 7 6 6 6 6 6 7 7 7 7 8 8 9 9 10 9 9 9 10 11 11 11 11 12 12 12 11 11 12 12 13 14 16 17 19 20 22 23 25 26 26 26 27 28
8 7 7 8 9 9 9 10 11 11 11 11 11 11 11 10 10 10 11 10 9 9 9 9 9 8 8 7 6 5 4 3 4 5 5 6 6 6 7 6 6 6 6 5 5 5 6 7 7 7 7 7 8 8 9 9 9 9 10 11 11 11 11 11 11 11 11 11 11 11 12 13 15 17 19 21 22 24 25 26 26 26 27 28 29
9 8 7 8 8 9 9 9 9 10 10 10 9 9 9 9 8 9 10 10 9 9 9 9 9 9 8 8 7 6 6 5 5 5 6 6 6 6 6 5 5 5 4 4 5 5 6 6 6 6 7 7 8 8 8 9 9 9 10 10 10 10 11 11 11 10 10 10 11 12 13 15 17 19 21 23 24 25 26 26 26 26 26 27 28
10 9 8 8 8 9 9 9 9 9 9 9 8 8 7 7 6 6 7 8 8 8 8 9 9 9 9 8 8 8 7 6 5 5 5 5 5 5 4 4 4 4 4 5 5 6 6 6 6 7 7 7 8 8 8 8 9 9 9 9 9 10 10 10 10 10 10 11 12 14 15 17 19 21 22 23 24 25 25 25 24 24 25 26 26
11 10 9 9 9 9 9 9 9 9 9 9 8 8 7 6 5 5 5 5 6 6 7 7 7 8 8 7 7 7 7 6 4 3 3 4 4 4 4 4 4 4 5 6 6 6 6 6 6 7 7 7 7 7 7 8 8 8 8 8 9 9 9 10 10 11 12 13 14 15 17 18 19 21 22 22 23 23 23 23 23 23 23 24 25
12 11 10 10 9 9 9 9 9 9 9 9 8 8 7 6 5 4 4 4 4 5 5 5 6 6 6 5 5 5 5 5 4 3 2 3 4 5 4 4 5 5 6 6 6 6 6 7 7 8 8 7 7 7 7 7 7 7 7 7 7 8 9 10 11 12 13 14 15 16 17 18 19 20 21 21 22 22 22 22 22 22 22 23 24
13 12 11 11 10 9 9 9 9 9 9 9 9 9 8 8 7 6 5 4 3 4 4 4 4 4 4 4 3 3 3 4 3 2 2 3 3 3 3 4 5 6 6 6 7 7 7 8 8 8 8 8 8 8 7 7 6 6 6 6 7 9 10 11 12 13 14 15 16 17 17 18 19 19 20 20 20 20 21 21 22 23 24 24 26
13 13 12 12 11 10 10 10 10 10 9 9 9 9 9 8 8 7 6 5 4 4 3 3 3 3 3 2 2 2 2 2 2 2 1 2 1 2 2 3 4 5 5 6 6 7 8 8 9 8 8 8 7 6 6 5 5 5 6 7 8 10 11 12 13 14 15 16 17 17 18 18 18 18 18 18 19 20 21 22 23 24 26 27 28
14 13 13 12 12 11 11 11 11 10 10 10 10 9 9 8 8 7 7 6 5 4 3 2 2 2 2 1 2 2 2 2 2 2 2 1 1 1 2 2 3 3 4 5 6 7 7 8 8 8 7 7 6 6 5 5 5 6 7 8 9 11 12 13 14 15 16 16 17 17 17 17 18 18 18 19 20 21 22 24 25 27 28 30 31
15 14 13 13 13 12 12 12 12 11 10 10 9 9 8 8 8 7 6 5 4 3 2 2 1 1 1 1 2 3 3 3 3 3 3 2 2 1 1 1 2 3 4 6 6 7 7 8 7 7 7 7 6 5 5 5 6 7 9 10 11 12 13 14 15 16 16 17 17 17 18 18 19 19 20 21 22 23 24 25 27 28 29 31 33
16 15 15 14 14 13 13 13 13 12 11 10 9 9 8 7 7 6 5 4 3 2 2 2 1 1 1 0 1 3 4 5 4 4 4 4 2 1 1 1 2 3 4 5 6 6 7 7 7 7 6 6 6 6 6 7 9 10 12 13 14 15 15 15 16 16 17 17 17 17 19 20 21 23 24 24 25 26 27 28 28 29 29 31 33
17 16 16 15 15 15 14 14 13 12 11 10 9 9 8 7 7 6 5 5 4 4 3 3 3 3 3 2 1 2 3 5 6 6 5 5 3 2 2 1 2 3 4 4 4 5 5 5 5 5 6 6 6 7 8 10 11 13 14 14 15 16 16 17 17 16 16 17 18 19 21 22 23 23 24 24 25 26 27 28 29 29 29 29 29
18 17 17 17 16 16 15 15 14 13 12 11 11 10 9 8 7 6 5 4 4 3 2 1 1 2 3 3 3 3 3 4 6 6 7 6 5 4 3 3 2 3 3 4 4 4 4 5 5 6 6 7 8 9 10 11 13 14 15 16 16 17 17 17 16 16 17 18 19 21 21 22 23 22 22 22 22 23 25 26 26 26 25 25 27
18 18 18 18 17 17 16 16 15 14 14 13 12 10 9 7 6 5 4 4 3 3 3 2 2 3 4 5 5 5 5 4 5 6 7 7 7 6 5 4 3 3 3 4 4 4 4 5 6 7 7 8 9 10 11 12 14 15 16 16 16 15 15 14 14 17 19 19 19 19 19 21 22 21 20 19 20 21 23 24 25 25 24 25 26
18 18 19 19 18 18 18 17 17 16 15 13 11 10 8 7 6 6 5 5 5 5 5 5 4 4 5 6 6 6 6 6 6 5 6 7 7 7 5 4 4 3 3 3 3 3 4 5 6 6 7 8 9 10 11 12 13 15 16 15 13 13 13 14 16 18 19 18 18 17 18 19 21 21 20 19 20 21 23 24 24 25 26 26 27
18 19 19 19 19 19 19 19 18 17 15 13 11 10 9 8 7 7 7 7 6 6 6 6 6 5 6 7 7 7 7 8 8 7 6 6 6 6 6 4 4 3 2 2 2 2 3 4 5 5 6 7 8 9 10 11 13 14 15 15 16 16 17 19 20 18 17 17 17 17 18 19 19 20 20 20 21 22 23 24 25 26 27 28 29
19 19 19 20 20 20 21 21 20 18 16 14 12 10 10 9 9 8 8 8 7 7 8 7 7 6 7 8 8 8 8 8 8 8 7 6 6 6 5 5 4 3 2 1 1 2 3 3 4 4 5 5 7 8 10 12 13 14 14 15 16 19 22 24 22 18 15 14 15 17 18 19 20 21 21 22 23 23 24 26 27 28 29 30 31
21 21 20 21 21 22 22 22 21 19 17 15 13 12 11 10 10 9 9 9 8 8 8 8 8 7 7 8 8 8 9 9 9 8 7 6 5 6 6 5 4 4 3 2 2 2 3 4 4 4 5 5 7 9 10 12 13 14 15 16 18 21 23 22 18 14 13 14 15 17 18 19 21 22 23 25 26 27 28 29 30 31 32 32 33
24 23 22 22 22 23 23 24 23 21 18 16 14 13 12 11 10 10 10 10 10 9 9 9 8 8 8 8 9 9 9 9 8 8 6 5 5 6 6 5 5 5 3 3 3 3 4 4 5 5 5 5 7 8 9 11 13 14 16 18 21 24 23 20 16 14 14 16 17 19 20 22 23 25 27 28 30 31 32 33 34 34 35 35 36
25 25 23 23 23 24 25 25 25 23 21 18 15 13 12 11 11 11 11 11 11 10 9 9 9 9 8 8 9 9 9 8 8 7 6 5 5 6 6 6 6 6 4 4 5 5 4 4 4 4 4 5 7 8 8 10 13 16 18 20 22 22 19 17 17 18 18 18 19 20 21 23 25 28 30 32 33 34 35 35 36 37 37 38 38
26 26 25 24 25 26 27 27 27 25 23 20 17 14 13 12 12 12 11 12 12 11 10 10 10 9 9 8 8 9 9 9 7 7 7 6 6 7 7 7 7 6 6 6 6 6 5 4 3 4 5 6 7 9 9 11 14 17 18 19 20 18 16 16 18 20 21 21 22 23 24 26 28 29 30 32 33 34 36 38 38 39 39 40 40
27 27 27 26 26 27 28 29 28 27 24 21 18 16 14 13 13 13 12 13 13 12 11 11 10 10 9 9 8 8 10 9 7 7 8 7 7 7 8 8 8 7 7 7 7 6 5 4 4 5 7 7 8 9 9 11 15 16 16 16 17 17 17 18 20 21 22 24 24 26 28 29 30 31 32 32 33 34 36 38 40 41 42 42 42
29 28 28 28 28 28 29 30 29 28 25 22 19 17 15 15 14 14 13 13 14 13 12 11 11 10 9 9 8 8 9 9 7 7 9 9 9 9 9 9 9 9 8 8 7 6 5 4 4 6 7 9 9 9 10 12 14 14 15 16 16 17 18 18 20 22 23 25 26 27 29 29 30 32 33 34 34 35 36 38 40 42 43 44 44
30 30 30 30 29 29 29 30 29 28 25 22 20 18 17 16 15 14 13 13 14 14 13 11 10 10 9 10 9 8 9 9 7 8 10 11 10 10 10 11 10 9 9 8 7 6 5 5 5 6 7 9 10 10 11 13 14 13 13 15 16 17 17 17 19 22 23 24 26 27 29 30 30 32 33 34 35 36 36 37 39 40 41 42 42
32 31 31 31 30 30 30 30 29 27 25 23 21 20 19 17 16 15 14 14 14 13 13 12 11 11 10 9 9 9 10 9 8 9 10 11 11 11 12 12 11 10 9 9 7 6 6 5 6 7 7 9 10 10 11 13 14 12 10 12 14 15 16 17 18 21 22 23 23 25 27 28 29 30 31 33 34 34 35 36 36 36 37 38 39
32 32 32 32 31 31 31 30 29 27 25 24 23 22 20 18 16 15 15 15 14 13 13 13 12 12 11 10 9 9 10 10 10 10 11 11 11 12 13 13 12 11 11 10 9 8 7 6 7 8 8 9 10 11 12 13 15 15 11 10 12 15 16 17 18 19 22 22 22 22 24 26 26 27 29 31 32 33 34 35 35 36 36 37 38
33 32 32 32 32 32 32 31 30 27 26 25 24 23 21 19 16 16 15 15 14 13 13 13 13 13 12 11 10 10 11 11 11 11 12 11 11 12 14 14 13 13 12 11 10 9 8 7 8 8 9 10 11 13 13 13 16 18 15 10 11 15 16 18 19 20 22 23 23 22 23 25 25 26 28 30 30 32 34 34 35 35 35 36 36
35 33 32 32 33 33 33 32 31 29 28 26 25 24 23 20 18 16 16 15 14 13 13 13 13 13 13 12 11 11 12 12 12 12 12 11 11 12 14 15 15 14 14 13 12 10 9 8 8 10 11 11 12 14 15 14 16 20 18 13 12 15 17 19 21 22 23 25 25 23 23 25 25 26 27 28 28 29 30 31 32 33 34 35 36
35 34 33 32 32 33 33 33 33 31 30 27 26 25 24 22 19 17 16 15 14 14 14 14 14 13 13 13 12 12 12 13 13 13 13 11 11 11 14 16 16 16 15 14 12 11 11 10 10 11 12 13 14 16 17 16 16 19 19 15 14 16 18 20 22 23 24 26 26 25 24 25 25 24 26 26 26 27 27 27 28 29 31 33 35
35 34 34 33 32 32 33 33 34 33 31 29 28 27 25 23 21 19 17 15 15 15 15 15 14 14 14 14 13 13 13 13 14 14 13 11 10 11 13 16 17 17 16 15 14 13 13 13 12 12 13 15 16 17 18 18 16 17 18 16 16 17 20 21 23 24 25 27 28 27 25 26 26 24 26 28 29 29 29 28 28 28 29 30 30
35 35 34 33 32 32 32 32 33 33 33 31 29 29 28 25 22 20 17 16 16 16 16 16 16 15 15 14 14 13 13 14 15 14 13 12 11 11 12 14 16 17 17 16 15 16 16 15 15 14 15 17 17 17 19 19 17 16 17 17 18 19 21 23 24 25 26 27 29 29 28 28 28 27 27 29 30 32 32 31 32 32 31 31 30
35 35 35 34 33 32 32 32 32 32 32 31 31 31 30 26 23 21 19 17 17 17 18 18 17 16 15 15 14 14 14 15 15 15 14 13 12 12 12 13 14 16 17 17 17 18 18 18 18 18 18 19 20 19 19 20 19 18 18 19 20 20 21 25 26 26 27 27 29 30 30 31 31 31 29 29 30 33 34 33 33 34 34 35 34
34 34 35 35 34 33 33 32 31 32 32 31 31 31 30 27 24 22 20 19 19 19 20 19 19 17 17 16 15 14 14 15 16 15 15 13 13 14 14 13 13 14 16 18 19 19 19 20 20 20 20 22 22 21 21 22 23 22 21 21 21 20 21 25 27 27 28 29 30 30 31 32 34 34 34 31 30 32 35 35 35 36 37 37 37
34 35 35 35 34 33 33 32 31 31 32 31 30 30 30 27 24 23 22 21 21 21 21 21 21 19 18 18 17 16 15 16 17 16 16 14 13 15 16 16 15 16 17 19 20 20 20 21 22 22 22 23 23 23 24 25 26 25 24 23 22 21 23 26 27 27 29 31 32 32 32 33 35 36 37 36 33 32 34 36 37 38 39 40 40
Wind_Direction
96 94 97 99 100 105 109 113 115 109 104 104 101 98 99 100 98 98 98 96 91 88 87 87 85 85 83 81 81 81 83 85 86 87 89 91 92 92 91 89 88 87 86 84 82 80 77 76 75 73 71 71 70 68 67 65 64 62 60 57 53 50 45 39 34 29 27 26 26 24 25 25 23 17 11 7 1 356 355 354 355 356 357 358 358
95 91 93 95 100 108 111 113 113 109 109 112 108 105 107 106 106 106 103 99 94 91 89 89 88 88 88 87 85 85 84 84 84 86 90 93 94 95 94 93 91 90 89 87 86 83 80 78 77 75 74 73 72 70 68 65 62 58 55 51 48 45 39 33 27 23 20 20 19 19 19 15 11 8 5 1 356 352 350 350 351 352 353 354 356
96 96 98 99 99 101 105 106 103 105 113 115 114 115 115 111 112 113 112 106 100 96 95 95 93 92 93 92 90 90 90 88 86 89 93 95 95 95 95 95 92 90 89 87 86 85 82 80 79 77 76 76 75 74 72 69 65 60 56 51 46 41 34 28 22 18 15 13 11 7 1 356 357 358 357 355 354 351 348 347 347 349 351 353 354
102 104 103 102 103 103 104 109 110 115 120 120 119 119 118 115 116 119 123 118 110 107 105 101 99 97 96 95 94 94 94 92 90 91 94 94 93 93 93 93 92 90 88 86 86 86 86 84 83 81 80 79 78 77 74 70 66 61 57 52 46 39 32 25 18 11 7 1 354 347 341 342 345 346 347 349 351 350 346 344 345 347 350 351 352
107 110 108 103 107 110 109 114 118 118 118 118 117 117 116 117 118 122 126 123 120 120 115 109 105 102 100 99 98 97 96 93 91 92 94 95 96 96 95 93 92 91 88 86 86 86 86 86 86 85 83 82 80 77 74 69 65 60 55 48 41 33 25 17 9 0 352 345 337 335 336 338 339 337 340 345 349 348 344 343 345 346 349 350 350
111 111 108 104 109 111 110 113 113 111 112 115 117 120 122 120 119 121 125 126 125 123 120 117 113 110 108 105 102 99 97 95 94 94 96 96 97 96 96 95 94 92 91 89 88 88 88 88 88 88 87 84 81 78 73 68 62 56 48 41 34 27 17 7 359 350 344 339 337 338 340 339 336 335 338 345 349 347 344 344 344 346 348 348 349
112 110 108 107 110 109 109 109 104 105 109 111 115 120 122 117 116 121 125 126 124 122 124 123 119 118 117 111 107 104 102 101 100 100 100 98 97 95 94 94 94 94 93 92 92 91 91 90 90 88 86 82 79 75 70 65 59 54 49 43 39 33 26 19 9 359 348 340 338 339 338 336 336 339 343 349 350 347 345 344 344 346 347 348 349
114 114 113 110 109 105 104 104 100 105 110 110 113 118 119 117 120 124 123 122 121 124 128 126 124 123 121 117 113 110 109 109 107 106 104 103 100 99 98 96 96 96 97 98 97 95 94 92 90 86 82 78 74 70 66 63 60 56 51 46 41 36 32 29 24 16 6 352 342 339 337 337 341 345 350 352 351 347 345 344 345 345 347 349 352
115 115 113 109 110 108 107 107 106 110 111 111 110 109 109 110 114 118 119 122 125 130 132 129 128 127 122 118 116 114 114 113 113 111 108 106 105 105 105 104 104 104 103 101 99 97 95 93 89 85 80 75 71 69 66 63 59 53 47 42 37 33 30 29 27 24 20 13 3 355 349 348 351 353 354 353 349 346 345 345 346 347 350 352 352
113 113 109 108 110 111 114 115 112 110 107 108 109 105 104 105 108 113 119 125 130 135 135 132 131 128 121 117 116 116 117 115 113 110 108 107 108 108 109 109 110 109 107 104 102 99 96 93 90 87 82 76 72 67 64 59 53 47 42 37 31 27 24 23 22 21 22 22 20 16 9 3 359 356 353 350 348 346 346 347 350 352 354 353 351
111 109 109 110 111 110 115 117 115 112 107 107 108 107 109 111 112 113 114 119 128 137 138 135 135 130 123 119 118 119 118 116 113 110 108 109 109 110 111 111 111 109 106 104 101 99 96 94 91 87 81 75 69 63 57 51 45 40 34 29 24 20 17 16 16 16 17 19 20 18 13 6 360 356 353 350 349 349 352 354 356 356 355 353 352
112 109 110 112 113 113 117 119 118 118 113 109 110 111 113 117 117 114 110 113 124 136 140 139 138 133 126 122 122 122 119 116 114 111 110 111 112 112 112 111 109 105 103 100 98 97 95 92 86 78 74 69 62 57 51 44 37 31 26 21 16 12 10 11 12 13 15 16 17 15 10 5 1 358 356 355 355 357 360 0 359 357 355 353 352
115 113 113 113 115 117 119 119 118 119 115 110 113 117 118 120 117 114 113 113 120 131 136 138 137 133 128 127 125 123 120 117 112 107 107 111 112 113 112 111 108 106 104 102 99 95 90 85 78 70 64 57 52 47 42 36 29 23 18 13 8 6 6 9 13 14 16 16 16 14 11 8 5 3 3 3 4 5 4 2 360 357 355 353 352
122 119 118 118 119 118 119 119 117 118 116 111 114 118 121 122 118 117 117 115 118 126 131 134 135 131 129 128 126 124 122 117 109 103 103 110 114 115 114 113 112 110 106 102 97 90 82 74 67 60 53 46 42 37 32 29 24 16 10 5 3 5 9 13 15 15 15 14 14 13 12 12 11 12 12 12 10 7 4 1 360 358 356 354 353
128 125 124 125 125 123 122 120 116 118 118 114 116 118 120 120 119 121 119 116 119 122 126 130 131 129 128 126 126 125 124 117 106 94 87 99 114 116 114 113 111 107 101 95 87 78 70 62 52 45 39 36 33 29 27 24 18 10 5 2 5 10 14 15 15 14 14 14 13 14 17 19 21 20 18 15 10 6 4 2 0 359 357 355 355
136 133 134 133 131 129 127 122 119 120 119 113 115 117 116 116 117 119 118 119 122 121 124 128 128 128 127 126 125 124 120 112 101 87 79 92 107 111 111 108 101 95 88 79 68 59 51 44 38 32 28 28 27 25 25 21 14 9 6 7 12 16 15 13 12 12 15 17 18 21 26 27 26 23 18 13 9 7 5 3 1 0 359 358 359
146 144 145 144 141 137 133 129 126 124 120 115 115 116 115 116 118 119 118 121 124 125 130 131 128 129 127 124 123 121 117 110 97 83 82 94 101 106 102 91 83 79 73 62 50 41 35 30 27 25 25 27 28 24 22 19 15 13 14 17 18 15 11 10 11 14 18 23 26 29 30 28 24 19 14 10 9 7 5 3 2 1 0 1 2
157 156 154 153 152 148 142 137 133 129 126 122 119 118 118 118 120 121 118 119 124 129 134 132 129 128 124 121 120 117 117 109 90 82 85 92 97 97 84 73 69 63 55 43 30 24 26 28 28 26 26 27 26 23 21 20 21 21 21 20 17 13 10 12 15 20 24 27 28 29 26 21 16 11 8 7 7 6 5 4 3 2 2 3 5
166 165 162 160 163 161 154 147 141 137 135 131 126 123 124 124 124 124 121 121 126 128 129 130 128 124 121 117 113 109 106 97 90 88 89 89 89 84 74 67 61 53 43 30 23 21 26 31 30 29 28 24 22 24 27 27 27 25 22 18 15 13 14 17 20 23 26 26 24 20 16 11 7 4 4 6 7 6 6 5 3 3 3 5 7
171 172 171 168 171 173 169 162 154 149 146 141 137 135 133 133 131 127 125 125 128 128 126 126 125 122 118 114 111 108 104 101 100 97 93 90 86 82 77 70 59 49 37 27 28 28 26 22 19 23 27 26 25 28 33 33 30 25 20 16 15 16 18 20 21 21 20 17 13 9 6 4 3 4 6 6 6 6 5 4 4 5 6 6 6
175 175 176 175 176 182 183 179 172 166 160 156 154 152 148 144 140 133 130 130 131 129 127 126 124 123 120 118 118 115 110 108 107 103 98 90 84 78 72 65 56 47 28 19 22 19 14 10 12 21 29 32 33 33 34 34 30 23 18 15 15 16 17 14 12 10 8 5 4 3 3 4 5 7 7 7 5 4 3 3 4 5 6 6 4
178 177 178 180 180 186 191 190 188 183 178 175 173 171 167 162 158 152 145 140 134 130 128 127 126 124 123 124 124 120 119 121 118 112 101 91 83 73 60 48 39 30 14 11 16 14 11 13 18 27 33 36 37 36 33 29 25 21 16 13 12 10 8 4 2 1 1 1 2 3 5 6 7 7 6 5 3 2 1 1 1 2 3 2 360
180 180 182 185 185 188 194 197 196 194 192 193 192 190 188 185 182 180 178 167 149 139 134 131 130 127 126 127 128 128 132 135 134 129 108 87 80 69 56 33 20 19 14 13 18 18 17 20 24 29 32 32 32 30 27 23 19 16 13 9 5 3 1 1 0 0 2 4 5 6 6 7 7 5 4 3 1 359 357 355 355 355 355 355 355
182 184 187 189 190 191 195 200 202 201 200 203 206 204 202 201 200 199 200 197 185 167 155 148 141 136 133 133 139 148 152 154 154 143 113 86 72 57 38 16 16 24 24 21 23 22 20 21 24 27 27 27 27 24 22 20 16 12 7 3 0 359 1 1 2 3 5 6 6 5 5 4 3 2 0 358 356 352 349 348 347 346 348 350 351
186 188 190 192 194 195 198 203 205 206 206 208 212 213 211 209 208 209 211 210 207 203 193 177 163 154 147 145 160 183 190 188 186 174 137 106 72 25 10 16 26 33 29 25 25 22 20 21 23 24 25 26 27 24 21 18 11 5 1 1 2 1 2 3 3 5 6 5 4 3 1 359 357 355 353 349 346 344 343 342 342 343 345 347 349
189 191 193 195 197 198 200 206 209 209 208 210 213 216 216 216 214 212 214 213 212 216 219 217 211 203 191 181 194 213 226 226 219 212 203 187 189 323 4 24 31 28 23 21 21 19 18 19 20 21 23 23 23 19 15 10 5 4 4 5 6 5 5 6 6 6 5 4 1 358 355 353 350 347 343 340 338 339 340 340 341 343 345 346 347
193 194 196 199 200 201 203 208 213 213 211 210 211 212 214 217 217 215 215 217 217 215 219 230 240 242 242 237 235 234 241 248 248 241 240 238 231 250 349 19 17 9 10 13 15 16 15 16 18 19 18 19 19 15 11 12 11 11 12 11 10 10 9 8 6 5 3 1 358 354 350 346 342 339 338 338 338 339 340 340 341 342 343 344 345
198 199 201 203 204 204 206 210 213 213 210 207 204 201 202 204 204 198 193 191 182 164 138 116 94 72 57 341 260 253 250 252 252 253 254 254 248 247 286 349 356 355 2 7 9 13 16 18 20 20 20 20 18 16 15 15 16 15 14 12 10 10 10 8 6 4 2 359 354 348 343 340 338 337 338 338 339 340 340 339 338 338 340 341 342
203 203 204 206 207 207 208 210 210 207 200 192 185 181 178 176 171 162 155 150 143 136 123 108 92 69 49 35 6 301 269 260 256 254 255 256 255 254 266 301 333 342 352 359 4 12 19 25 26 25 24 23 20 18 16 15 15 14 12 12 11 10 10 7 4 1 357 353 347 344 343 341 339 336 335 336 338 341 340 338 337 336 339 341 343
205 205 205 206 207 207 207 206 202 195 184 173 167 164 163 162 160 156 155 155 156 161 153 125 65 21 3 357 355 345 318 285 268 261 258 256 257 260 267 283 308 327 336 344 357 11 22 27 29 26 22 21 18 15 15 14 13 12 12 12 12 12 11 6 359 355 353 351 349 351 352 349 343 335 332 333 338 343 347 348 347 345 345 346 346
205 205 206 206 206 206 204 199 192 183 173 167 163 164 168 175 182 188 196 204 216 236 253 269 292 314 321 325 330 333 334 320 292 271 263 260 259 263 269 282 299 318 328 337 353 10 20 24 24 21 15 13 13 12 13 12 12 14 17 16 14 11 6 358 348 345 350 355 357 358 357 356 354 351 344 340 341 344 349 352 354 352 350 348 346
206 207 208 206 204 203 199 192 185 178 173 172 174 178 187 198 212 224 231 238 244 255 265 273 284 292 297 303 311 316 323 325 315 295 273 261 259 262 267 279 293 308 321 336 357 7 14 18 16 13 9 6 6 8 12 13 14 17 18 14 6 356 352 351 348 347 353 359 2 2 360 360 3 4 0 352 347 345 347 348 349 349 348 345 343
207 209 209 206 203 200 194 188 184 181 181 184 187 192 199 207 218 229 238 245 249 257 267 272 277 281 283 290 297 303 311 318 317 311 295 271 259 259 264 272 282 290 299 321 345 355 1 5 0 358 359 0 2 5 12 18 19 18 14 5 352 343 346 353 354 353 359 2 359 359 0 2 3 2 359 354 350 347 346 346 345 345 343 341 339
208 210 208 205 202 197 192 189 187 188 190 193 195 198 204 211 219 229 240 249 252 257 264 271 275 276 275 280 288 296 304 310 312 311 305 285 259 251 256 261 262 262 262 273 304 323 331 333 332 341 354 2 10 13 15 18 18 12 7 359 347 340 344 348 347 345 353 358 356 356 359 1 1 358 356 354 351 349 347 346 345 344 342 340 338
210 212 209 206 203 198 194 192 192 195 198 199 200 204 209 215 222 231 242 251 256 258 263 269 273 275 275 277 283 292 300 306 308 308 306 291 259 241 240 242 242 243 247 253 264 283 300 308 315 335 355 4 14 19 17 17 13 2 356 350 343 343 348 354 354 352 355 359 358 358 358 358 357 356 355 354 353 351 350 349 347 344 342 340 338
212 213 211 207 205 201 197 197 198 200 204 205 207 210 214 219 226 235 244 253 258 259 261 266 268 271 273 275 278 286 294 302 304 304 304 291 257 236 228 226 231 236 243 255 262 270 285 298 309 330 349 355 7 18 19 16 10 2 357 352 347 350 357 7 16 15 9 5 3 0 357 355 355 356 356 355 353 351 349 348 346 343 342 340 339
214 215 213 209 207 204 201 201 203 205 207 209 212 216 221 226 233 240 248 255 260 262 262 265 266 267 270 271 273 279 286 294 299 296 294 281 250 231 220 217 223 228 234 246 257 271 285 294 304 321 335 341 356 14 22 18 11 5 3 360 358 2 6 10 12 10 7 6 3 359 355 353 355 356 356 354 351 349 347 345 343 342 341 340 339
216 217 216 213 209 207 205 205 206 208 210 212 215 219 225 230 237 245 252 258 264 269 270 270 269 270 271 269 268 270 276 286 291 284 279 269 245 228 217 214 218 222 228 242 258 275 286 292 302 314 323 335 352 7 16 16 9 6 6 4 5 12 13 7 3 2 1 1 358 355 353 354 355 356 355 353 350 347 345 343 341 341 340 339 339
220 219 219 217 214 211 209 208 209 210 212 213 217 221 226 231 237 244 252 259 267 274 278 279 277 275 274 271 266 263 268 278 280 268 264 260 245 228 217 213 215 220 229 244 260 271 275 281 300 313 321 332 348 359 6 8 5 6 11 9 7 10 9 2 359 358 357 357 356 354 353 353 353 353 353 351 348 347 345 342 341 340 339 339 339
224 223 222 220 218 216 214 213 213 213 214 215 220 225 228 232 237 243 249 258 267 276 281 284 282 279 275 270 265 258 261 271 271 253 251 254 245 229 220 216 215 220 231 243 253 259 265 280 297 308 317 325 337 347 352 357 3 6 9 8 5 5 4 0 356 355 355 355 354 353 350 350 351 352 351 349 347 346 345 343 341 340 339 339 339
229 226 225 224 223 222 220 218 217 217 216 218 223 229 232 233 238 245 250 257 265 274 280 283 282 279 272 265 260 255 256 263 259 242 242 249 246 230 221 219 219 223 233 242 245 247 254 267 280 292 306 313 323 333 338 346 357 2 2 2 2 1 3 2 357 353 353 353 352 350 347 346 350 351 349 347 346 345 344 343 341 340 338 336 336
233 231 229 228 227 227 225 224 223 221 220 221 226 232 236 235 239 247 253 257 264 273 279 282 280 276 270 263 255 249 249 254 250 236 235 244 245 234 223 222 224 228 235 241 243 243 245 253 265 278 292 303 312 322 328 336 346 349 351 357 360 359 359 0 358 353 350 349 348 347 344 343 346 348 346 345 345 344 343 341 339 337 336 334 333
236 236 234 233 232 231 230 229 228 225 223 225 228 234 238 238 240 248 254 259 266 273 277 280 279 276 273 266 255 245 244 246 242 233 231 238 243 238 228 225 228 232 237 242 246 247 245 248 259 268 281 295 304 313 320 328 335 336 335 340 351 356 355 354 353 348 344 344 344 343 340 338 342 346 344 343 344 344 342 340 338 336 335 333 331
238 238 238 237 236 235 235 234 233 230 228 228 230 236 241 241 242 248 255 260 266 271 275 278 280 279 277 270 260 249 242 241 236 230 229 234 240 240 233 228 229 234 240 246 250 252 251 254 264 271 279 290 298 305 312 321 328 328 324 319 334 348 351 349 347 343 339 339 340 341 338 335 339 344 343 342 344 343 341 339 336 334 332 329 328
238 239 240 240 240 239 238 238 237 235 233 231 233 238 243 244 243 247 254 260 265 270 273 276 278 279 278 272 264 253 244 239 234 228 227 231 236 239 236 233 233 237 243 249 253 257 261 264 271 278 282 289 296 302 308 315 323 325 321 310 317 335 343 344 343 340 336 333 332 337 338 335 337 341 341 340 342 342 339 336 334 331 329 328 327
239 239 240 242 242 242 240 240 240 239 237 235 236 240 243 245 244 246 252 258 265 270 271 272 273 274 274 272 266 256 246 240 235 230 229 231 234 237 238 239 241 244 248 253 257 262 268 273 278 284 287 292 297 301 306 310 317 323 320 308 307 323 334 337 337 335 333 329 326 330 335 334 333 337 338 338 341 340 337 334 333 330 329 328 325
241 241 241 241 243 243 243 241 241 241 240 239 239 242 244 245 245 247 251 256 262 267 269 269 269 270 271 270 266 259 248 241 237 233 231 232 233 236 240 243 247 250 254 258 261 264 270 276 283 289 292 295 297 300 302 302 306 317 320 309 301 312 324 328 329 330 330 327 322 323 330 331 331 336 339 339 340 339 336 335 334 333 331 329 327
242 242 242 242 242 243 243 242 241 242 242 241 242 244 245 246 246 247 251 254 257 262 265 266 267 267 268 268 265 260 250 243 240 236 234 234 233 234 240 246 251 255 258 261 265 268 273 280 287 291 294 296 296 297 298 296 296 308 319 311 299 303 315 320 320 323 326 326 322 320 325 329 330 335 339 340 339 336 334 335 334 333 332 331 331
243 243 242 242 242 242 243 242 241 242 242 242 242 244 245 246 246 248 251 253 255 258 262 265 265 265 265 265 264 259 252 246 243 239 238 238 237 237 241 248 253 258 261 262 265 269 276 283 289 292 295 296 297 298 300 299 296 304 317 314 301 299 308 313 314 316 320 322 321 321 324 327 329 331 335 339 339 335 332 333 333 332 332 332 332
243 243 242 242 242 242 243 243 242 241 242 241 241 244 245 246 246 248 251 253 253 256 260 262 263 264 264 265 264 260 254 249 246 244 244 244 243 243 245 249 254 258 261 263 266 271 277 280 283 288 291 293 297 302 304 304 301 304 313 313 303 298 303 307 309 313 315 317 318 321 324 326 328 329 331 335 339 337 332 331 331 331 331 332 332
244 243 243 243 243 243 244 244 243 242 241 241 241 244 245 246 246 247 251 253 252 254 257 260 262 265 266 267 266 263 257 252 249 249 250 249 248 248 250 252 254 257 261 266 271 276 280 281 282 286 287 290 295 301 303 303 302 305 312 311 302 297 301 305 307 311 314 314 316 319 323 325 327 329 330 331 335 336 333 331 330 331 331 332 331
Height
5937 5937 5937 5938 5938 5938 5938 5937 5937 5937 5937 5937 5937 5937 5938 5938 5939 5939 5940 5940 5939 5940 5940 5939 5939 5939 5939 5940 5940 5940 5940 5941 5941 5941 5941 5941 5941 5941 5941 5941 5941 5941 5942 5942 5942 5942 5942 5942 5942 5942 5942 5942 5942 5941 5941 5941 5941 5941 5941 5941 5941 5941 5940 5940 5940 5940 5939 5939 5938 5938 5937 5936 5935 5935 5934 5933 5932 5931 5930 5929 5927 5926 5924 5923 5921
5938 5938 5939 5939 5940 5939 5939 5939 5939 5939 5939 5939 5939 5939 5939 5940 5941 5941 5941 5941 5941 5941 5941 5941 5941 5941 5941 5941 5942 5942 5942 5942 5942 5942 5943 5943 5942 5942 5942 5942 5943 5943 5943 5943 5943 5943 5943 5943 5943 5943 5943 5943 5943 5943 5943 5943 5943 5943 5943 5943 5943 5942 5942 5942 5941 5941 5940 5940 5939 5938 5938 5937 5936 5935 5935 5933 5932 5931 5930 5929 5928 5927 5925 5923 5921
5939 5939 5940 5940 5940 5941 5941 5941 5941 5941 5940 5939 5939 5940 5940 5940 5941 5942 5942 5942 5942 5943 5943 5943 5943 5943 5943 5943 5943 5944 5944 5944 5944 5944 5944 5945 5944 5944 5944 5944 5944 5944 5945 5945 5945 5945 5945 5945 5945 5945 5945 5945 5944 5944 5944 5944 5944 5944 5944 5944 5944 5944 5943 5943 5942 5942 5941 5941 5940 5939 5938 5938 5937 5936 5935 5934 5933 5932 5931 5930 5929 5927 5925 5924 5922
5940 5940 5941 5941 5941 5942 5942 5942 5943 5943 5942 5941 5940 5941 5941 5941 5941 5942 5942 5942 5942 5944 5944 5945 5945 5945 5945 5945 5945 5945 5945 5946 5946 5946 5946 5946 5946 5946 5946 5945 5945 5946 5946 5946 5946 5946 5946 5946 5946 5946 5946 5946 5946 5946 5946 5946 5946 5946 5946 5945 5945 5945 5944 5944 5943 5943 5942 5941 5940 5940 5939 5938 5937 5936 5935 5934 5933 5932 5931 5930 5929 5927 5926 5924 5922
5941 5941 5941 5942 5942 5943 5943 5944 5944 5944 5943 5944 5943 5943 5942 5941 5942 5943 5943 5943 5943 5944 5946 5946 5946 5946 5946 5946 5946 5946 5947 5947 5947 5948 5948 5948 5948 5948 5948 5947 5947 5947 5947 5947 5947 5947 5947 5947 5947 5947 5947 5947 5947 5947 5947 5947 5947 5947 5947 5947 5946 5946 5945 5945 5944 5943 5942 5942 5941 5940 5939 5938 5938 5937 5936 5935 5934 5933 5932 5931 5929 5928 5926 5924 5922
5941 5941 5942 5942 5943 5943 5944 5945 5944 5944 5944 5945 5945 5945 5945 5943 5943 5944 5944 5945 5945 5945 5947 5947 5948 5948 5948 5948 5948 5948 5948 5948 5949 5949 5949 5949 5949 5949 5949 5949 5949 5949 5949 5949 5949 5949 5949 5949 5948 5948 5948 5949 5949 5949 5948 5948 5948 5948 5948 5948 5947 5947 5946 5945 5945 5944 5943 5942 5941 5940 5940 5939 5938 5937 5936 5935 5934 5933 5932 5931 5929 5928 5926 5924 5922
5942 5942 5943 5943 5943 5944 5945 5945 5945 5944 5945 5945 5945 5945 5946 5945 5945 5945 5946 5946 5946 5946 5947 5948 5949 5949 5949 5949 5949 5949 5949 5950 5950 5950 5950 5950 5950 5950 5950 5950 5950 5950 5950 5950 5950 5950 5950 5950 5950 5950 5950 5950 5950 5950 5950 5950 5950 5950 5949 5949 5948 5948 5947 5946 5945 5944 5943 5943 5942 5941 5940 5939 5938 5938 5937 5936 5935 5934 5933 5931 5930 5928 5926 5924 5922
5944 5944 5944 5944 5945 5945 5946 5945 5946 5946 5945 5946 5946 5947 5946 5946 5946 5947 5947 5947 5947 5947 5948 5949 5950 5950 5950 5950 5950 5950 5951 5951 5951 5952 5952 5952 5952 5952 5952 5951 5951 5952 5952 5952 5952 5952 5952 5951 5951 5951 5951 5951 5951 5951 5951 5951 5951 5951 5951 5950 5950 5949 5948 5947 5946 5945 5944 5943 5942 5941 5940 5940 5939 5938 5937 5936 5935 5934 5933 5931 5930 5928 5926 5924 5922
5945 5945 5945 5946 5946 5946 5946 5947 5947 5947 5947 5947 5947 5948 5947 5946 5947 5947 5947 5948 5948 5949 5950 5950 5951 5951 5951 5952 5952 5952 5952 5952 5953 5953 5953 5953 5953 5953 5953 5953 5953 5953 5953 5953 5953 5953 5953 5953 5953 5953 5953 5953 5953 5953 5953 5953 5953 5952 5952 5951 5950 5949 5948 5947 5946 5945 5944 5943 5942 5941 5941 5940 5939 5939 5938 5937 5936 5935 5933 5932 5930 5928 5926 5924 5922
5946 5946 5946 5947 5947 5947 5947 5948 5948 5948 5948 5948 5948 5948 5947 5947 5948 5949 5949 5949 5949 5950 5951 5952 5952 5952 5953 5953 5953 5953 5954 5954 5954 5955 5954 5954 5955 5955 5954 5955 5955 5955 5954 5955 5955 5955 5955 5954 5954 5954 5954 5954 5954 5954 5954 5954 5954 5953 5952 5951 5950 5949 5948 5947 5947 5946 5945 5944 5943 5942 5941 5941 5940 5939 5938 5937 5936 5935 5934 5932 5931 5929 5927 5925 5923
5947 5948 5948 5948 5949 5949 5949 5949 5949 5949 5949 5949 5949 5949 5949 5950 5950 5950 5950 5950 5951 5952 5952 5953 5953 5954 5954 5954 5955 5955 5955 5956 5956 5956 5956 5956 5956 5956 5956 5956 5956 5956 5956 5956 5956 5956 5956 5956 5955 5955 5955 5955 5955 5955 5955 5955 5954 5953 5953 5952 5951 5950 5949 5948 5947 5946 5945 5944 5944 5943 5942 5941 5941 5940 5939 5938 5937 5936 5934 5933 5931 5929 5927 5925 5923
5949 5949 5949 5950 5950 5951 5951 5951 5950 5951 5951 5951 5950 5950 5950 5951 5952 5951 5951 5952 5952 5953 5953 5954 5955 5955 5956 5956 5956 5957 5957 5958 5958 5958 5958 5958 5957 5958 5958 5958 5957 5957 5957 5957 5957 5957 5957 5957 5957 5957 5956 5956 5956 5956 5956 5955 5955 5954 5953 5952 5951 5950 5950 5949 5948 5947 5946 5945 5945 5944 5943 5942 5941 5941 5940 5939 5938 5937 5935 5934 5932 5930 5928 5926 5924
5950 5950 5951 5951 5952 5952 5953 5952 5952 5952 5952 5952 5952 5951 5952 5953 5953 5953 5953 5954 5954 5955 5955 5955 5956 5957 5957 5957 5958 5958 5959 5960 5960 5960 5959 5959 5959 5959 5959 5959 5959 5959 5959 5959 5959 5959 5959 5958 5958 5958 5958 5958 5958 5957 5957 5956 5956 5955 5954 5953 5952 5951 5950 5950 5949 5948 5947 5946 5946 5945 5944 5943 5942 5942 5941 5940 5939 5937 5936 5934 5933 5931 5929 5927 5924
5951 5951 5952 5952 5953 5953 5954 5954 5953 5953 5953 5953 5954 5953 5954 5954 5955 5955 5955 5955 5956 5956 5956 5957 5957 5958 5958 5959 5959 5960 5960 5961 5961 5961 5961 5960 5960 5960 5960 5961 5961 5960 5960 5960 5960 5960 5960 5960 5960 5959 5959 5959 5959 5958 5958 5957 5956 5956 5955 5954 5953 5952 5951 5950 5950 5949 5948 5947 5946 5946 5945 5944 5943 5942 5942 5941 5939 5938 5937 5935 5933 5932 5930 5927 5925
5951 5952 5953 5953 5954 5954 5955 5955 5955 5955 5955 5955 5955 5955 5955 5955 5956 5956 5956 5956 5957 5958 5958 5958 5959 5959 5960 5960 5961 5961 5961 5962 5962 5962 5962 5962 5962 5962 5962 5962 5962 5962 5962 5962 5962 5961 5961 5961 5961 5961 5960 5960 5960 5959 5959 5958 5957 5956 5955 5955 5954 5953 5952 5951 5950 5950 5949 5948 5947 5947 5946 5945 5944 5943 5942 5941 5940 5939 5937 5936 5934 5932 5930 5928 5925
5952 5953 5953 5954 5955 5955 5956 5956 5956 5956 5956 5956 5956 5957 5957 5957 5957 5957 5957 5958 5958 5959 5959 5959 5960 5960 5961 5961 5962 5962 5962 5962 5963 5963 5962 5962 5963 5963 5963 5963 5963 5963 5963 5963 5963 5962 5962 5962 5962 5962 5961 5961 5960 5960 5959 5959 5958 5957 5956 5955 5954 5954 5953 5952 5951 5950 5950 5949 5949 5948 5947 5946 5945 5944 5943 5942 5941 5939 5938 5936 5935 5933 5931 5928 5926
5953 5954 5954 5955 5955 5956 5957 5957 5957 5957 5957 5958 5958 5958 5958 5958 5959 5959 5958 5959 5959 5960 5960 5961 5961 5961 5962 5962 5962 5963 5963 5963 5963 5963 5963 5963 5963 5964 5964 5964 5964 5964 5963 5963 5963 5963 5963 5963 5962 5962 5962 5961 5961 5960 5960 5959 5958 5957 5957 5956 5955 5954 5954 5953 5952 5952 5951 5950 5950 5949 5948 5947 5946 5945 5944 5943 5941 5940 5939 5937 5935 5933 5932 5929 5927
5954 5954 5955 5956 5956 5957 5958 5958 5958 5958 5959 5959 5959 5959 5960 5960 5960 5960 5959 5960 5961 5961 5962 5962 5962 5962 5963 5963 5963 5964 5964 5964 5964 5964 5964 5964 5964 5965 5965 5965 5965 5964 5964 5964 5964 5964 5964 5963 5963 5963 5962 5962 5961 5961 5960 5959 5959 5958 5957 5957 5956 5956 5955 5954 5954 5953 5952 5952 5951 5950 5950 5948 5947 5946 5945 5944 5942 5941 5940 5938 5936 5935 5932 5930 5927
5954 5955 5956 5956 5957 5957 5958 5959 5959 5959 5959 5960 5960 5961 5961 5962 5962 5961 5961 5961 5962 5962 5963 5963 5963 5963 5963 5964 5964 5964 5965 5965 5965 5965 5964 5965 5965 5965 5966 5966 5965 5965 5965 5965 5965 5965 5965 5964 5963 5963 5963 5962 5962 5961 5961 5960 5960 5959 5959 5958 5957 5957 5956 5956 5955 5954 5954 5953 5952 5952 5951 5950 5948 5947 5946 5945 5944 5942 5941 5939 5937 5935 5933 5931 5928
5955 5956 5956 5957 5957 5958 5959 5959 5959 5960 5960 5960 5961 5961 5962 5962 5963 5962 5962 5963 5963 5963 5963 5964 5964 5964 5964 5964 5965 5965 5966 5966 5966 5966 5965 5966 5966 5966 5966 5966 5966 5966 5966 5965 5965 5965 5965 5964 5964 5963 5963 5963 5962 5962 5961 5961 5961 5960 5960 5959 5959 5958 5957 5957 5956 5956 5955 5954 5954 5953 5952 5951 5950 5948 5947 5946 5945 5943 5942 5940 5938 5936 5933 5931 5928
5956 5956 5957 5957 5958 5959 5959 5960 5960 5960 5961 5961 5962 5962 5963 5963 5963 5963 5963 5964 5964 5964 5964 5964 5965 5965 5965 5965 5966 5966 5967 5967 5967 5967 5967 5967 5967 5967 5967 5967 5967 5967 5966 5966 5965 5965 5965 5964 5964 5964 5963 5963 5963 5963 5962 5962 5962 5962 5961 5961 5960 5959 5959 5958 5957 5957 5956 5956 5955 5954 5953 5952 5951 5950 5948 5947 5945 5944 5942 5940 5938 5936 5933 5931 5928
5956 5957 5957 5958 5958 5959 5960 5961 5961 5961 5961 5962 5962 5963 5963 5963 5963 5964 5964 5964 5964 5965 5965 5965 5966 5966 5966 5966 5967 5967 5967 5968 5968 5968 5967 5968 5968 5968 5968 5968 5967 5967 5967 5966 5966 5966 5965 5965 5965 5965 5964 5964 5964 5964 5964 5963 5963 5963 5962 5962 5961 5960 5960 5959 5959 5958 5957 5957 5956 5955 5954 5953 5952 5951 5949 5948 5946 5944 5942 5940 5937 5935 5933 5931 5928
5956 5957 5958 5958 5958 5959 5960 5961 5961 5962 5962 5962 5963 5963 5964 5964 5964 5964 5965 5965 5965 5965 5966 5966 5967 5967 5967 5968 5968 5968 5968 5968 5968 5968 5968 5968 5969 5969 5969 5969 5968 5968 5967 5967 5967 5967 5966 5966 5966 5966 5965 5965 5965 5965 5965 5965 5964 5964 5963 5963 5962 5962 5961 5960 5960 5959 5959 5958 5957 5956 5955 5954 5953 5951 5950 5948 5946 5944 5941 5939 5937 5934 5932 5930 5928
5956 5957 5958 5958 5959 5959 5960 5961 5962 5962 5962 5963 5963 5964 5964 5965 5965 5965 5965 5966 5966 5966 5966 5967 5967 5968 5968 5968 5969 5969 5969 5969 5969 5969 5969 5969 5969 5969 5969 5969 5969 5968 5968 5968 5968 5968 5968 5967 5967 5967 5967 5966 5966 5966 5966 5966 5965 5965 5964 5964 5963 5963 5962 5962 5961 5961 5960 5959 5958 5957 5956 5954 5953 5951 5950 5948 5945 5943 5941 5938 5936 5934 5932 5930 5928
5956 5957 5958 5959 5959 5960 5961 5961 5962 5962 5962 5963 5963 5964 5965 5965 5965 5966 5966 5966 5967 5967 5967 5968 5968 5968 5969 5969 5969 5969 5969 5969 5969 5969 5969 5969 5970 5970 5970 5970 5969 5969 5969 5969 5969 5969 5969 5969 5968 5968 5968 5967 5967 5967 5966 5966 5966 5965 5965 5964 5964 5964 5963 5963 5962 5961 5960 5959 5958 5957 5956 5954 5953 5951 5949 5947 5945 5943 5941 5938 5936 5934 5932 5930 5928
5956 5957 5958 5959 5960 5960 5961 5962 5962 5962 5963 5963 5964 5964 5965 5965 5966 5966 5966 5967 5967 5968 5968 5968 5969 5969 5969 5970 5970 5969 5969 5969 5969 5969 5970 5970 5970 5970 5970 5970 5970 5970 5970 5970 5970 5970 5970 5969 5969 5969 5968 5968 5967 5967 5967 5967 5966 5966 5966 5965 5965 5964 5964 5963 5963 5962 5961 5960 5958 5957 5955 5954 5952 5950 5948 5946 5945 5943 5941 5939 5937 5935 5933 5931 5928
5955 5957 5958 5959 5960 5961 5961 5962 5962 5963 5963 5963 5964 5964 5965 5966 5966 5967 5967 5967 5968 5968 5969 5969 5969 5969 5970 5970 5970 5970 5969 5969 5970 5970 5970 5970 5970 5971 5971 5971 5971 5971 5971 5971 5971 5971 5971 5970 5970 5970 5969 5969 5968 5968 5968 5968 5967 5967 5967 5966 5966 5965 5965 5964 5963 5962 5961 5960 5958 5956 5955 5953 5951 5950 5948 5946 5945 5943 5941 5940 5938 5936 5933 5931 5928
5955 5956 5958 5959 5960 5960 5961 5962 5962 5963 5963 5963 5964 5965 5965 5966 5966 5967 5967 5968 5968 5969 5969 5969 5970 5970 5970 5970 5970 5970 5970 5970 5970 5970 5970 5970 5971 5971 5971 5971 5971 5971 5971 5971 5971 5971 5971 5971 5971 5971 5970 5970 5969 5969 5969 5969 5968 5968 5967 5967 5967 5966 5965 5964 5963 5962 5961 5959 5958 5956 5954 5953 5951 5950 5948 5947 5945 5943 5942 5939 5937 5935 5933 5931 5928
5954 5955 5957 5958 5959 5960 5961 5961 5962 5963 5963 5964 5964 5965 5965 5966 5966 5967 5968 5968 5969 5969 5969 5970 5970 5970 5970 5971 5970 5970 5970 5970 5970 5970 5970 5971 5971 5971 5972 5972 5972 5972 5972 5972 5972 5972 5972 5972 5972 5971 5971 5971 5971 5970 5970 5969 5969 5969 5968 5968 5967 5967 5965 5964 5963 5962 5960 5959 5957 5956 5955 5953 5952 5950 5948 5946 5945 5943 5941 5939 5936 5934 5932 5930 5927
5953 5954 5956 5957 5958 5959 5960 5961 5962 5963 5963 5964 5964 5965 5965 5966 5966 5967 5968 5968 5969 5969 5970 5970 5970 5971 5971 5971 5971 5971 5971 5970 5970 5971 5971 5971 5971 5972 5972 5972 5972 5972 5972 5972 5972 5972 5972 5972 5972 5972 5972 5972 5971 5971 5970 5970 5970 5970 5969 5969 5968 5967 5966 5964 5963 5961 5960 5959 5957 5956 5955 5953 5951 5949 5947 5946 5944 5943 5941 5938 5936 5933 5931 5929 5927
5952 5953 5955 5956 5957 5959 5959 5961 5962 5963 5963 5964 5964 5965 5966 5966 5967 5967 5968 5968 5969 5969 5970 5970 5970 5971 5971 5971 5971 5971 5971 5971 5970 5970 5971 5971 5971 5972 5972 5972 5972 5972 5972 5973 5973 5973 5973 5973 5973 5973 5972 5972 5972 5971 5971 5971 5970 5970 5970 5969 5968 5967 5966 5964 5962 5961 5960 5959 5958 5957 5955 5953 5951 5948 5946 5945 5944 5942 5940 5938 5935 5933 5931 5929 5927
5952 5953 5954 5955 5956 5958 5959 5960 5962 5963 5963 5964 5965 5965 5966 5966 5967 5967 5968 5968 5969 5969 5970 5970 5971 5971 5971 5971 5971 5971 5971 5971 5970 5970 5971 5971 5971 5972 5972 5972 5972 5973 5973 5973 5973 5973 5973 5973 5973 5973 5973 5972 5972 5972 5972 5972 5971 5971 5970 5970 5968 5967 5966 5964 5963 5961 5960 5958 5957 5956 5954 5952 5950 5948 5946 5944 5943 5941 5939 5937 5935 5932 5930 5928 5926
5951 5952 5953 5955 5956 5957 5959 5960 5962 5963 5964 5964 5965 5965 5966 5966 5967 5967 5967 5968 5968 5969 5969 5970 5970 5971 5971 5970 5971 5971 5971 5971 5970 5970 5970 5971 5971 5971 5972 5972 5973 5973 5973 5973 5973 5973 5973 5973 5973 5973 5973 5973 5973 5973 5972 5972 5972 5972 5971 5969 5967 5966 5965 5964 5962 5961 5959 5958 5956 5955 5953 5952 5950 5948 5946 5944 5942 5940 5938 5936 5934 5932 5929 5927 5925
5950 5951 5952 5954 5955 5957 5958 5960 5961 5962 5963 5964 5965 5965 5965 5966 5966 5967 5967 5967 5968 5968 5969 5969 5970 5970 5970 5970 5970 5970 5970 5971 5970 5970 5970 5970 5971 5971 5972 5972 5973 5973 5973 5973 5973 5973 5973 5973 5973 5974 5974 5974 5973 5973 5973 5973 5972 5972 5971 5969 5967 5966 5964 5963 5962 5960 5959 5958 5956 5954 5952 5951 5949 5947 5945 5944 5942 5940 5937 5935 5933 5931 5928 5926 5924
5949 5950 5952 5953 5954 5956 5958 5959 5961 5962 5963 5964 5964 5965 5965 5965 5966 5966 5967 5967 5967 5968 5968 5969 5969 5970 5970 5970 5970 5970 5970 5970 5970 5970 5970 5970 5971 5971 5972 5972 5972 5973 5973 5973 5973 5973 5973 5973 5973 5974 5974 5974 5973 5973 5973 5973 5972 5971 5970 5968 5967 5965 5964 5962 5960 5959 5958 5957 5956 5954 5952 5950 5948 5946 5944 5942 5940 5938 5936 5934 5932 5929 5927 5925 5922
5948 5949 5950 5952 5954 5955 5957 5959 5960 5961 5962 5963 5963 5964 5964 5965 5965 5966 5966 5966 5966 5967 5967 5968 5968 5969 5969 5969 5969 5969 5969 5969 5970 5970 5970 5970 5970 5971 5971 5972 5972 5972 5973 5973 5973 5973 5973 5973 5973 5973 5973 5973 5973 5973 5973 5972 5972 5971 5969 5967 5965 5963 5962 5961 5960 5959 5958 5957 5955 5953 5951 5949 5947 5945 5942 5940 5938 5936 5934 5932 5930 5927 5925 5923 5920
5947 5948 5949 5951 5952 5954 5956 5957 5958 5959 5961 5962 5962 5963 5964 5964 5965 5965 5965 5965 5965 5966 5966 5967 5967 5968 5968 5968 5968 5968 5968 5969 5969 5969 5969 5970 5970 5970 5971 5972 5972 5972 5972 5972 5972 5972 5973 5973 5973 5973 5973 5973 5973 5973 5973 5972 5971 5970 5968 5966 5964 5963 5961 5960 5959 5958 5958 5956 5955 5953 5951 5949 5946 5943 5941 5939 5936 5934 5932 5930 5928 5925 5923 5921 5918
5946 5947 5948 5949 5951 5952 5954 5955 5956 5958 5959 5960 5961 5962 5963 5963 5964 5964 5964 5964 5964 5965 5965 5966 5966 5967 5967 5967 5968 5968 5968 5968 5968 5968 5969 5969 5969 5970 5970 5971 5971 5972 5972 5972 5972 5972 5972 5972 5972 5972 5972 5972 5972 5972 5972 5972 5970 5969 5967 5966 5964 5962 5961 5960 5959 5958 5957 5955 5954 5952 5950 5947 5945 5943 5941 5938 5936 5933 5930 5928 5926 5923 5921 5919 5916
5944 5945 5947 5948 5949 5950 5952 5953 5954 5956 5957 5959 5960 5961 5962 5962 5963 5963 5963 5963 5963 5964 5964 5965 5965 5965 5966 5966 5967 5967 5967 5967 5967 5968 5968 5968 5969 5969 5970 5970 5971 5971 5971 5972 5972 5972 5972 5972 5972 5971 5971 5971 5971 5971 5971 5971 5970 5968 5967 5965 5964 5963 5961 5960 5959 5958 5956 5954 5952 5950 5947 5945 5943 5941 5940 5938 5935 5933 5931 5927 5924 5921 5918 5916 5913
5943 5944 5945 5947 5948 5949 5950 5951 5953 5954 5956 5957 5959 5960 5960 5961 5961 5961 5962 5962 5962 5962 5963 5963 5964 5964 5965 5965 5965 5966 5966 5966 5966 5967 5967 5967 5968 5968 5969 5970 5970 5971 5971 5971 5972 5972 5972 5972 5971 5971 5970 5970 5970 5970 5970 5970 5969 5968 5966 5965 5964 5963 5962 5960 5958 5957 5955 5953 5951 5949 5947 5945 5943 5941 5938 5936 5934 5932 5930 5927 5923 5919 5916 5912 5910
5941 5942 5944 5945 5946 5947 5948 5950 5951 5953 5955 5956 5957 5958 5959 5959 5960 5960 5961 5961 5961 5961 5962 5962 5962 5963 5963 5963 5964 5964 5964 5965 5965 5966 5966 5966 5967 5967 5968 5969 5970 5970 5971 5971 5971 5971 5971 5971 5971 5970 5970 5969 5969 5969 5969 5969 5968 5968 5966 5965 5963 5963 5962 5960 5958 5956 5954 5953 5951 5949 5946 5944 5942 5940 5938 5936 5934 5931 5929 5926 5923 5920 5916 5912 5909
5939 5940 5942 5943 5945 5946 5947 5948 5950 5952 5953 5955 5956 5957 5957 5958 5959 5959 5959 5960 5960 5960 5960 5960 5961 5961 5961 5962 5962 5963 5963 5963 5964 5964 5965 5965 5966 5966 5967 5968 5969 5969 5970 5970 5970 5971 5971 5971 5971 5970 5970 5969 5968 5968 5968 5967 5967 5967 5966 5964 5963 5962 5961 5959 5958 5956 5954 5952 5951 5949 5946 5944 5942 5940 5938 5935 5933 5930 5928 5925 5922 5919 5917 5913 5910
5937 5938 5940 5941 5943 5944 5945 5947 5948 5950 5952 5953 5954 5955 5956 5957 5957 5958 5958 5959 5959 5959 5959 5959 5959 5959 5960 5960 5961 5961 5961 5962 5962 5963 5964 5964 5964 5965 5966 5967 5968 5968 5969 5969 5969 5970 5970 5970 5970 5970 5969 5969 5968 5967 5967 5966 5966 5965 5964 5963 5962 5961 5959 5958 5957 5955 5953 5952 5951 5949 5946 5943 5942 5940 5937 5935 5932 5930 5927 5923 5920 5917 5915 5912 5909
5934 5936 5938 5939 5941 5942 5943 5945 5947 5949 5950 5951 5953 5953 5954 5955 5956 5957 5957 5957 5958 5958 5958 5958 5958 5958 5958 5959 5959 5959 5960 5960 5961 5961 5962 5963 5963 5964 5965 5966 5967 5967 5968 5968 5968 5969 5969 5969 5969 5969 5969 5968 5967 5966 5965 5965 5964 5963 5963 5962 5960 5960 5958 5957 5956 5954 5952 5950 5949 5948 5946 5943 5940 5938 5936 5933 5931 5929 5925 5922 5919 5917 5914 5911 5908
5931 5933 5935 5937 5938 5940 5941 5943 5945 5946 5948 5950 5951 5952 5952 5954 5955 5955 5956 5956 5957 5957 5957 5957 5957 5957 5957 5957 5957 5958 5958 5958 5959 5960 5961 5962 5962 5963 5964 5965 5965 5966 5966 5967 5967 5967 5967 5968 5968 5968 5967 5967 5966 5965 5964 5964 5963 5962 5961 5960 5958 5958 5957 5955 5954 5952 5950 5948 5947 5946 5945 5942 5939 5937 5935 5932 5930 5928 5925 5922 5919 5916 5913 5910 5907
5928 5931 5933 5934 5936 5937 5939 5940 5942 5944 5945 5947 5949 5949 5950 5952 5953 5954 5954 5955 5955 5955 5956 5956 5955 5955 5955 5955 5956 5956 5956 5957 5958 5958 5959 5960 5961 5962 5962 5963 5964 5964 5964 5965 5965 5965 5966 5966 5966 5966 5966 5966 5965 5964 5963 5963 5962 5961 5959 5958 5956 5955 5955 5953 5952 5950 5948 5946 5944 5944 5943 5941 5938 5936 5933 5931 5929 5926 5924 5922 5919 5915 5912 5909 5906
5925 5927 5929 5931 5933 5934 5936 5937 5939 5941 5943 5945 5946 5947 5948 5949 5951 5952 5953 5953 5954 5954 5953 5954 5953 5953 5954 5954 5954 5954 5955 5955 5956 5957 5958 5959 5959 5960 5961 5961 5962 5962 5963 5963 5963 5964 5964 5964 5965 5965 5965 5964 5963 5963 5962 5961 5961 5960 5958 5956 5954 5953 5952 5951 5950 5948 5946 5943 5941 5940 5940 5938 5936 5934 5931 5928 5926 5923 5920 5918 5917 5914 5911 5909 5906
5922 5924 5926 5928 5930 5931 5932 5934 5936 5938 5939 5942 5943 5944 5945 5947 5948 5950 5951 5951 5952 5951 5951 5951 5951 5951 5952 5952 5952 5952 5953 5953 5954 5955 5956 5957 5957 5958 5959 5959 5959 5960 5960 5961 5961 5961 5961 5962 5962 5962 5962 5962 5961 5961 5961 5960 5959 5958 5957 5955 5952 5951 5949 5948 5947 5946 5944 5941 5938 5937 5936 5935 5932 5931 5930 5927 5923 5920 5918 5916 5913 5911 5908 5906 5904
5918 5920 5922 5924 5926 5927 5929 5931 5933 5935 5936 5938 5940 5941 5942 5944 5946 5947 5948 5949 5949 5949 5949 5949 5949 5949 5949 5949 5949 5950 5951 5951 5952 5953 5954 5955 5955 5956 5956 5957 5957 5957 5958 5959 5959 5958 5958 5959 5959 5959 5959 5959 5958 5958 5958 5957 5956 5955 5954 5953 5951 5949 5947 5946 5944 5942 5941 5939 5937 5934 5932 5931 5928 5926 5926 5926 5923 5918 5914 5913 5910 5907 5905 5902 5900
5915 5916 5918 5920 5922 5924 5926 5928 5930 5931 5933 5935 5937 5938 5939 5942 5944 5945 5946 5946 5947 5947 5946 5946 5947 5947 5947 5947 5947 5948 5949 5949 5950 5951 5952 5952 5953 5953 5954 5954 5955 5955 5956 5956 5956 5956 5956 5956 5956 5957 5956 5956 5955 5955 5954 5953 5952 5951 5951 5950 5948 5946 5945 5944 5941 5939 5936 5934 5933 5932 5930 5927 5924 5922 5920 5921 5922 5918 5912 5908 5907 5904 5901 5898 5896
5911 5913 5914 5916 5918 5920 5922 5924 5926 5928 5929 5932 5934 5935 5937 5939 5941 5942 5943 5943 5944 5944 5944 5944 5944 5945 5945 5945 5946 5946 5947 5947 5948 5949 5949 5950 5951 5951 5951 5952 5952 5953 5953 5953 5953 5953 5953 5953 5953 5954 5953 5953 5952 5952 5951 5950 5949 5948 5947 5946 5945 5944 5942 5941 5939 5937 5934 5930 5928 5927 5926 5924 5921 5919 5915 5914 5915 5916 5913 5907 5903 5900 5897 5894 5892